EDT,Max TemperatureF,Mean TemperatureF,Min TemperatureF,Max Dew PointF,MeanDew PointF,Min DewpointF,Max Humidity, Mean Humidity, Min Humidity, Max Sea Level PressureIn, Mean Sea Level PressureIn, Min Sea Level PressureIn, Max VisibilityMiles, Mean VisibilityMiles, Min VisibilityMiles, Max Wind SpeedMPH, Mean Wind SpeedMPH, Max Gust SpeedMPH,PrecipitationIn, CloudCover, Events, WindDirDegrees
2012-9-1,76,67,58,57,53,48,90,64,36,30.20,30.15,30.10,10,10,10,9,6,,0.00,0,,27
2012-9-2,71,64,57,64,58,52,96,79,57,30.14,30.09,30.02,10,10,5,16,8,23,0.00,1,,91
2012-9-3,76,68,61,64,57,52,94,71,45,30.02,29.96,29.90,10,10,5,14,7,23,0.54,2,Rain,138
2012-9-4,73,68,63,66,64,63,97,89,75,29.93,29.90,29.85,10,8,0,8,3,,0.02,4,Fog-Rain,33
2012-9-5,75,68,60,66,62,55,93,80,59,29.86,29.79,29.71,10,10,10,16,7,28,0.00,2,,221
2012-9-6,72,66,61,60,56,48,91,69,41,29.89,29.86,29.80,10,10,10,14,8,21,0.00,0,,248
2012-9-7,64,60,55,60,56,53,96,87,74,29.89,29.84,29.77,10,10,5,15,5,22,0.82,7,Rain,279
2012-9-8,61,57,53,53,48,41,94,74,50,29.82,29.73,29.68,10,10,10,15,9,25,0.01,2,Rain,325
2012-9-9,66,57,48,48,43,36,93,62,34,30.10,29.98,29.82,10,10,10,14,7,21,0.00,2,,339
2012-9-10,68,58,48,54,49,46,94,73,49,30.19,30.12,30.05,10,10,10,10,6,18,0.00,0,,247
2012-9-11,77,68,59,57,53,50,77,60,39,30.05,30.01,29.97,10,10,10,17,10,26,0.00,0,,213
2012-9-12,73,66,57,62,54,45,75,60,45,30.17,30.03,29.97,10,10,10,20,13,30,0.00,1,,241
2012-9-13,61,56,52,52,48,44,89,75,54,30.26,30.22,30.16,10,10,10,9,5,,0.01,6,Rain,310
2012-9-14,63,56,49,52,49,40,95,81,43,30.27,30.24,30.20,10,10,5,18,7,28,0.03,3,Rain,301
2012-9-15,60,53,46,48,41,35,95,66,41,30.34,30.25,30.12,10,10,10,12,6,17,0.00,0,,67
2012-9-16,70,61,52,56,50,42,89,65,40,30.11,29.96,29.88,10,10,10,20,11,30,0.00,0,,202
2012-9-17,64,56,49,58,52,46,94,79,51,29.88,29.79,29.72,10,9,1,20,9,28,0.68,5,Rain,239
2012-9-18,52,48,43,47,41,32,94,77,58,29.89,29.77,29.71,10,10,5,16,9,24,0.20,6,Rain,347
2012-9-19,55,46,36,45,38,31,93,71,45,29.98,29.90,29.71,10,10,10,20,8,34,0.03,5,Rain,174
2012-9-20,56,53,49,51,47,43,92,79,64,29.80,29.72,29.64,10,10,7,26,15,40,0.19,7,Rain,239
2012-9-21,57,50,42,48,44,41,96,83,56,29.81,29.77,29.73,10,10,4,20,7,25,0.62,5,Rain,239
2012-9-22,53,48,43,46,40,32,95,77,47,29.97,29.80,29.69,10,10,5,20,9,30,0.04,4,Rain,313
2012-9-23,52,46,41,40,38,35,91,74,54,30.12,30.06,29.97,10,10,10,20,11,24,0.00,4,Rain,291
2012-9-24,59,52,45,49,38,33,92,58,39,30.09,29.83,29.63,10,10,10,30,13,46,0.00,5,Rain,251
2012-9-25,55,48,41,46,42,34,96,79,45,29.91,29.85,29.77,10,10,7,10,6,,0.01,3,,47
2012-9-26,55,48,42,46,41,37,94,76,50,30.20,30.05,29.91,10,10,7,10,5,,0.01,5,Rain,323
2012-9-27,57,48,38,42,39,35,95,74,47,30.30,30.24,30.20,10,10,10,6,4,,0.00,0,,350
2012-9-28,59,50,42,50,46,38,96,82,60,30.20,30.14,30.07,10,10,10,13,5,,0.00,0,,248
2012-9-29,60,52,45,50,45,41,96,77,51,30.08,30.05,30.02,10,10,5,10,6,,0.00,1,,18
2012-9-30,57,51,45,45,41,37,90,72,46,30.07,30.02,29.97,10,10,10,13,7,17,0.00,1,,50